Back to catalog

JILIN-1 GAOFEN 06A 27 XING

AliveScienceSSO
NORAD 57038·PAYLOAD·🇨🇳 China
This satellite name has not been confirmed by official sources yet.

Launched Jun 15, 2023 from Taiyuan Satellite Launch Center

Loading…

Next Passes (next 24 hours)

TLE

FreshSource: Space-Track

Epoch: Sep 14, 2026, 13:27 UTC

1 57038U 23085AL  26257.56093887  .00013240  00000-0  36445-3 0  9994
2 57038  97.5022  11.6086 0007358 116.9374 243.2622 15.37268666180477

Track JILIN-1 GAOFEN 06A 27 XING in real time with AllMySat

Download on the App Store